THORAD DELTA 1 DEB, 8172

Orbit data source: Space-Track

THORAD DELTA 1 DEB, 8172 is space debris in SSO originally from a launch on Fri, 15 Nov 1974 UTC launched from the Air Force Western Test Range (AFWTR). Debris objects in space refer to the collection of defunct objects orbiting the Earth. Examples of debris include non-operational satellites, rocket bodies, and fragments generated from explosions, collisions, or faulty payload assembly.

Loading next visibility...
Identifier
8172, 1974-089AN
Orbit
SSO
Country
Flag of USUS
Related business
Manufacturer
Unknown
Mission
Spacecraft
Bus & Motor
Unknown
Mass
Unknown
Launch date (UTC)
1974-11-15 (51 years ago)
Launch vehicle
Unknown
Launch site
Air Force Western Test Range (AFWTR)
Object type
Payload
Rocket body
Debris
Shape & HBR
Unknown shape, 0.5 m
Radar Cross Section
Medium (>0.1 m² and <1 m²)

Expand to show TLE details & history
Last TLE update: 14 hours ago

TLE from 14 hours ago
0 THORAD DELTA 1 DEB
1 08172U 74089AN  25293.91018144 -.00000026  00000-0  12823-3 0  9993
2 08172 101.9925 304.2368 0053037 188.7020 234.8370 12.54923645332801
Epoch: 2025-10-20T21:50Z
TLE epoch observation values (Epoch: 2025-10-20T21:50:39.676Z)
Latitude
60.77094°
Longitude
-75.22973°
Altitude
1,478.184 km
Speed
7.119 km/s
True Right ascension
18h 48m 09s
True Declination
60° 38' 15"
Sunlit
Object was in daylight at epoch
Visualization orbit readout
Latitude
Unknown
Longitude
Unknown
Altitude
Unknown
Speed
Unknown
Apparent Right ascension
Unknown
Apparent Declination
Unknown
Sunlit
N/A
Visualization observer readout
Local Sidereal Time
06:30:28
Azimuth
Unknown
Elevation
Unknown
Doppler factor
Unknown
Orbital elements
Apogee altitude
1,482.996 km
Perigee altitude
1,400.05 km
Semi-major axis
7,819.66 km
Eccentricity
0.0053
Inclination
101.9925°
RAAN
304.2368°
Arg. of periapsis
188.702°
True anomaly
234.34204°
Mean anomaly
234.837°
Eccentric anomaly
234.58933°
Mean motion
3.13878 °/min
Orbital period
114.69 mins
BSTAR
0.00012823
Loading maneuver chart data...
Computing Atmospheric mass density...

Documentation

Showing up to 5 results
|